Location: Casilda
(33.0440°S, 61.1680°W)
Time: 13:29:37
(UTC-03:00)

ISS - Pass Details

Date: 18 January 2025
Orbit: 415 x 418 km, 51.6° (Epoch: 13 January)

Event Time Altitude Azimuth Distance (km) Brightness Sun altitude
Rises 15:09:49 0° 272° (W) 2,372 0.5 61.6°
Enters shadow 15:39:13 -48° 36° (NE) 9,979 2.7 55.7°
Exits shadow 16:15:05 -59° 190° (S) 11,449 3.1 48.3°
Maximum altitude 04:39:08 34° 49° (NE) 722 -2.5 -17.7°
